Time,TemperatureF,DewpointF,PressureIn,WindDirection,WindDirectionDegrees,WindSpeedMPH,WindSpeedGustMPH,Humidity,HourlyPrecipIn,Conditions,Clouds,dailyrainin,SoftwareType,DateUTC
2013-03-11 00:00:00,36.4,33.2,30.31,WSW,243,13.0,17.0,88,0.00,,,0.00,Wunderground v.1.15,2013-03-11 04:00:00,
2013-03-11 00:01:00,36.4,33.2,30.31,WSW,243,13.0,15.0,88,0.00,,,0.00,Wunderground v.1.15,2013-03-11 04:01:00,
2013-03-11 00:02:00,36.4,32.9,30.30,WSW,245,13.0,15.0,87,0.00,,,0.00,Wunderground v.1.15,2013-03-11 04:02:00,
2013-03-11 00:07:00,36.3,33.1,30.31,WSW,249,14.0,15.0,88,0.00,,,0.00,Wunderground v.1.15,2013-03-11 04:07:00,
2013-03-11 00:12:00,36.3,32.8,30.30,SW,235,14.0,14.0,87,0.00,,,0.00,Wunderground v.1.15,2013-03-11 04:12:00,
2013-03-11 00:17:00,36.2,32.7,30.30,SW,231,14.0,15.0,87,0.00,,,0.00,Wunderground v.1.15,2013-03-11 04:17:00,
2013-03-11 00:22:00,36.2,32.7,30.30,SW,235,15.0,15.0,87,0.00,,,0.00,Wunderground v.1.15,2013-03-11 04:22:00,
2013-03-11 00:27:00,36.2,32.7,30.29,SW,229,10.0,17.0,87,0.00,,,0.00,Wunderground v.1.15,2013-03-11 04:27:00,
2013-03-11 00:32:00,36.3,32.8,30.29,SW,228,16.0,16.0,87,0.00,,,0.00,Wunderground v.1.15,2013-03-11 04:32:00,
2013-03-11 00:38:00,36.4,33.2,30.29,SW,222,14.0,16.0,88,0.00,,,0.00,Wunderground v.1.15,2013-03-11 04:38:00,
2013-03-11 00:44:00,36.4,33.2,30.30,SW,226,16.0,16.0,88,0.00,,,0.00,Wunderground v.1.15,2013-03-11 04:44:00,
2013-03-11 00:49:00,36.4,33.5,30.29,SW,217,14.0,16.0,89,0.00,,,0.00,Wunderground v.1.15,2013-03-11 04:49:00,
2013-03-11 00:54:00,36.5,33.6,30.29,WSW,248,14.0,15.0,89,0.00,,,0.00,Wunderground v.1.15,2013-03-11 04:54:00,
2013-03-11 01:00:00,36.5,33.3,30.30,SW,231,15.0,15.0,88,0.00,,,0.00,Wunderground v.1.15,2013-03-11 05:00:00,
2013-03-11 01:06:00,36.5,33.3,30.30,WSW,242,14.0,17.0,88,0.00,,,0.00,Wunderground v.1.15,2013-03-11 05:06:00,
2013-03-11 01:12:00,36.6,33.4,30.30,SW,235,15.0,16.0,88,0.00,,,0.00,Wunderground v.1.15,2013-03-11 05:12:00,
2013-03-11 01:17:00,36.7,33.8,30.30,WSW,252,15.0,16.0,89,0.00,,,0.00,Wunderground v.1.15,2013-03-11 05:17:00,
2013-03-11 01:23:00,36.7,33.8,30.30,WSW,246,17.0,17.0,89,0.00,,,0.00,Wunderground v.1.15,2013-03-11 05:23:00,
2013-03-11 01:28:00,36.8,33.9,30.30,WSW,246,17.0,17.0,89,0.00,,,0.00,Wunderground v.1.15,2013-03-11 05:28:00,
2013-03-11 01:33:00,36.7,33.5,30.31,WSW,255,17.0,17.0,88,0.00,,,0.00,Wunderground v.1.15,2013-03-11 05:33:00,
2013-03-11 01:38:00,36.7,33.5,30.31,WSW,258,16.0,17.0,88,0.00,,,0.00,Wunderground v.1.15,2013-03-11 05:38:00,
2013-03-11 01:43:00,36.5,33.3,30.31,WSW,258,16.0,18.0,88,0.00,,,0.00,Wunderground v.1.15,2013-03-11 05:43:00,
2013-03-11 01:48:00,36.5,33.3,30.32,WSW,257,14.0,18.0,88,0.00,,,0.00,Wunderground v.1.15,2013-03-11 05:48:00,
2013-03-11 01:54:00,36.4,33.2,30.32,West,272,16.0,18.0,88,0.00,,,0.00,Wunderground v.1.15,2013-03-11 05:54:00,
2013-03-11 01:59:00,36.4,33.2,30.32,WSW,258,14.0,18.0,88,0.00,,,0.00,Wunderground v.1.15,2013-03-11 05:59:00,
2013-03-11 02:04:00,36.3,33.1,30.32,West,276,13.0,17.0,88,0.00,,,0.00,Wunderground v.1.15,2013-03-11 06:04:00,
2013-03-11 02:09:00,36.3,32.8,30.32,West,261,14.0,17.0,87,0.00,,,0.00,Wunderground v.1.15,2013-03-11 06:09:00,
2013-03-11 02:14:00,36.3,33.1,30.32,WSW,256,14.0,17.0,88,0.00,,,0.00,Wunderground v.1.15,2013-03-11 06:14:00,
2013-03-11 02:19:00,36.3,33.1,30.31,WSW,252,13.0,17.0,88,0.00,,,0.00,Wunderground v.1.15,2013-03-11 06:19:00,
2013-03-11 02:24:00,36.2,33.0,30.31,West,259,14.0,16.0,88,0.00,,,0.00,Wunderground v.1.15,2013-03-11 06:24:00,
2013-03-11 02:29:00,36.1,32.9,30.31,WSW,252,16.0,17.0,88,0.00,,,0.00,Wunderground v.1.15,2013-03-11 06:29:00,
2013-03-11 02:34:00,36.1,32.9,30.30,WSW,255,16.0,18.0,88,0.00,,,0.00,Wunderground v.1.15,2013-03-11 06:34:00,
2013-03-11 02:39:00,36.0,32.8,30.30,WSW,257,16.0,18.0,88,0.00,,,0.00,Wunderground v.1.15,2013-03-11 06:39:00,
2013-03-11 02:44:00,36.0,32.8,30.30,WSW,238,14.0,16.0,88,0.00,,,0.00,Wunderground v.1.15,2013-03-11 06:44:00,
2013-03-11 02:49:00,36.0,33.1,30.29,WSW,249,16.0,17.0,89,0.00,,,0.00,Wunderground v.1.15,2013-03-11 06:49:00,
2013-03-11 02:54:00,35.9,33.0,30.29,WSW,248,16.0,18.0,89,0.00,,,0.00,Wunderground v.1.15,2013-03-11 06:54:00,
2013-03-11 02:59:00,35.9,33.0,30.29,WSW,240,15.0,18.0,89,0.00,,,0.00,Wunderground v.1.15,2013-03-11 06:59:00,
2013-03-11 03:04:00,35.8,32.6,30.29,WSW,240,14.0,18.0,88,0.00,,,0.00,Wunderground v.1.15,2013-03-11 07:04:00,
2013-03-11 03:09:00,35.9,33.0,30.28,SW,235,15.0,18.0,89,0.00,,,0.00,Wunderground v.1.15,2013-03-11 07:09:00,
2013-03-11 03:14:00,35.9,33.0,30.28,WSW,252,14.0,15.0,89,0.00,,,0.00,Wunderground v.1.15,2013-03-11 07:14:00,
2013-03-11 03:19:00,35.9,33.0,30.28,WSW,245,12.0,15.0,89,0.00,,,0.00,Wunderground v.1.15,2013-03-11 07:19:00,
2013-03-11 03:24:00,35.8,32.9,30.28,SW,232,12.0,13.0,89,0.00,,,0.00,Wunderground v.1.15,2013-03-11 07:24:00,
2013-03-11 03:29:00,35.8,33.2,30.27,SW,229,15.0,15.0,90,0.00,,,0.00,Wunderground v.1.15,2013-03-11 07:29:00,
2013-03-11 03:34:00,35.8,33.2,30.27,SW,235,13.0,15.0,90,0.00,,,0.00,Wunderground v.1.15,2013-03-11 07:34:00,
2013-03-11 03:39:00,35.7,32.8,30.26,SW,236,14.0,16.0,89,0.00,,,0.00,Wunderground v.1.15,2013-03-11 07:39:00,
2013-03-11 03:44:00,35.7,32.8,30.25,SW,222,11.0,16.0,89,0.00,,,0.00,Wunderground v.1.15,2013-03-11 07:44:00,
2013-03-11 03:49:00,35.8,33.2,30.25,SW,229,14.0,16.0,90,0.00,,,0.00,Wunderground v.1.15,2013-03-11 07:49:00,
2013-03-11 03:54:00,35.7,33.1,30.26,SW,226,16.0,16.0,90,0.00,,,0.00,Wunderground v.1.15,2013-03-11 07:54:00,
2013-03-11 03:59:00,35.7,33.1,30.26,SW,236,16.0,18.0,90,0.00,,,0.00,Wunderground v.1.15,2013-03-11 07:59:00,
2013-03-11 04:04:00,35.8,33.2,30.26,WSW,238,16.0,18.0,90,0.00,,,0.00,Wunderground v.1.15,2013-03-11 08:04:00,
2013-03-11 04:09:00,35.7,32.8,30.26,WSW,246,16.0,18.0,89,0.00,,,0.00,Wunderground v.1.15,2013-03-11 08:09:00,
2013-03-11 04:14:00,35.7,32.8,30.25,WSW,240,16.0,19.0,89,0.00,,,0.00,Wunderground v.1.15,2013-03-11 08:14:00,
2013-03-11 04:19:00,35.7,33.1,30.25,SW,236,16.0,19.0,90,0.00,,,0.00,Wunderground v.1.15,2013-03-11 08:19:00,
2013-03-11 04:24:00,35.6,32.7,30.25,WSW,240,15.0,19.0,89,0.00,,,0.00,Wunderground v.1.15,2013-03-11 08:24:00,
2013-03-11 04:29:00,35.5,32.9,30.25,SW,235,19.0,19.0,90,0.00,,,0.00,Wunderground v.1.15,2013-03-11 08:29:00,
2013-03-11 04:34:00,35.4,32.8,30.25,WSW,245,17.0,18.0,90,0.00,,,0.00,Wunderground v.1.15,2013-03-11 08:34:00,
2013-03-11 04:39:00,35.5,32.9,30.25,WSW,250,18.0,20.0,90,0.00,,,0.00,Wunderground v.1.15,2013-03-11 08:39:00,
2013-03-11 04:44:00,35.4,32.8,30.25,WSW,242,17.0,20.0,90,0.00,,,0.00,Wunderground v.1.15,2013-03-11 08:44:00,
2013-03-11 04:49:00,35.3,32.7,30.25,SW,235,17.0,20.0,90,0.00,,,0.00,Wunderground v.1.15,2013-03-11 08:49:00,
2013-03-11 04:54:00,35.3,32.9,30.25,WSW,238,16.0,18.0,91,0.00,,,0.00,Wunderground v.1.15,2013-03-11 08:54:00,
2013-03-11 04:59:00,35.2,32.6,30.25,WSW,250,15.0,18.0,90,0.00,,,0.00,Wunderground v.1.15,2013-03-11 08:59:00,
2013-03-11 05:04:00,35.3,32.9,30.25,WSW,240,14.0,17.0,91,0.00,,,0.00,Wunderground v.1.15,2013-03-11 09:04:00,
2013-03-11 05:09:00,35.2,32.6,30.25,WSW,238,19.0,20.0,90,0.00,,,0.00,Wunderground v.1.15,2013-03-11 09:09:00,
2013-03-11 05:14:00,34.4,31.8,30.26,WSW,249,18.0,22.0,90,0.00,,,0.00,Wunderground v.1.15,2013-03-11 09:14:00,
2013-03-11 05:19:00,34.4,31.8,30.25,WSW,249,18.0,22.0,90,0.00,,,0.00,Wunderground v.1.15,2013-03-11 09:19:00,
2013-03-11 05:24:00,-999.9,-99.9,30.25,North,32767,-999.0,18.0,255,-99.99,,,0.00,Wunderground v.1.15,2013-03-11 09:24:00,
2013-03-11 05:29:00,-999.9,-99.9,30.24,North,32767,-999.0,18.0,255,-99.99,,,0.00,Wunderground v.1.15,2013-03-11 09:29:00,
2013-03-11 05:34:00,-999.9,-99.9,30.24,North,32767,-999.0,-999.0,255,-99.99,,,0.00,Wunderground v.1.15,2013-03-11 09:34:00,
2013-03-11 05:39:00,-999.9,-99.9,30.24,North,32767,-999.0,-999.0,255,-99.99,,,0.00,Wunderground v.1.15,2013-03-11 09:39:00,
2013-03-11 05:44:00,-999.9,-99.9,30.23,North,32767,-999.0,-999.0,255,-99.99,,,0.00,Wunderground v.1.15,2013-03-11 09:44:00,
2013-03-11 05:49:00,-999.9,-99.9,30.23,North,32767,-999.0,-999.0,255,-99.99,,,0.00,Wunderground v.1.15,2013-03-11 09:49:00,
2013-03-11 05:55:00,-999.9,-99.9,30.23,North,32767,-999.0,-999.0,255,-99.99,,,0.00,Wunderground v.1.15,2013-03-11 09:55:00,
2013-03-11 06:00:00,-999.9,-99.9,30.23,North,32767,-999.0,-999.0,255,-99.99,,,0.00,Wunderground v.1.15,2013-03-11 10:00:00,
2013-03-11 06:05:00,-999.9,-99.9,30.22,North,32767,-999.0,-999.0,255,-99.99,,,0.00,Wunderground v.1.15,2013-03-11 10:05:00,
2013-03-11 06:10:00,-999.9,-99.9,30.23,North,32767,-999.0,-999.0,255,-99.99,,,0.00,Wunderground v.1.15,2013-03-11 10:10:00,
2013-03-11 06:15:00,-999.9,-99.9,30.23,North,32767,-999.0,-999.0,255,-99.99,,,0.00,Wunderground v.1.15,2013-03-11 10:15:00,
2013-03-11 06:20:00,-999.9,-99.9,30.24,North,32767,-999.0,-999.0,255,-99.99,,,0.00,Wunderground v.1.15,2013-03-11 10:20:00,
2013-03-11 06:25:00,-999.9,-99.9,30.24,North,32767,-999.0,-999.0,255,-99.99,,,0.00,Wunderground v.1.15,2013-03-11 10:25:00,
2013-03-11 06:30:00,-999.9,-99.9,30.24,North,32767,-999.0,-999.0,255,-99.99,,,0.00,Wunderground v.1.15,2013-03-11 10:30:00,
2013-03-11 06:35:00,-999.9,-99.9,30.24,North,32767,-999.0,-999.0,255,-99.99,,,0.00,Wunderground v.1.15,2013-03-11 10:35:00,
2013-03-11 06:40:00,-999.9,-99.9,30.24,North,32767,-999.0,-999.0,255,-99.99,,,0.00,Wunderground v.1.15,2013-03-11 10:40:00,
2013-03-11 06:45:00,-999.9,-99.9,30.25,North,32767,-999.0,-999.0,255,-99.99,,,0.00,Wunderground v.1.15,2013-03-11 10:45:00,
2013-03-11 06:50:00,-999.9,-99.9,30.25,North,32767,-999.0,-999.0,255,-99.99,,,0.00,Wunderground v.1.15,2013-03-11 10:50:00,
2013-03-11 06:55:00,-999.9,-99.9,30.25,North,32767,-999.0,-999.0,255,-99.99,,,0.00,Wunderground v.1.15,2013-03-11 10:55:00,
2013-03-11 07:00:00,-999.9,-99.9,30.25,North,32767,-999.0,-999.0,255,-99.99,,,0.00,Wunderground v.1.15,2013-03-11 11:00:00,
2013-03-11 07:05:00,-999.9,-99.9,30.25,North,32767,-999.0,-999.0,255,-99.99,,,0.00,Wunderground v.1.15,2013-03-11 11:05:00,
2013-03-11 07:10:00,-999.9,-99.9,30.25,North,32767,-999.0,-999.0,255,-99.99,,,0.00,Wunderground v.1.15,2013-03-11 11:10:00,
2013-03-11 07:15:00,-999.9,-99.9,30.25,North,32767,-999.0,-999.0,255,-99.99,,,0.00,Wunderground v.1.15,2013-03-11 11:15:00,
2013-03-11 07:20:00,-999.9,-99.9,30.25,North,32767,-999.0,-999.0,255,-99.99,,,0.00,Wunderground v.1.15,2013-03-11 11:20:00,
2013-03-11 07:25:00,-999.9,-99.9,30.25,North,32767,-999.0,-999.0,255,-99.99,,,0.00,Wunderground v.1.15,2013-03-11 11:25:00,
2013-03-11 07:30:00,-999.9,-99.9,30.25,North,32767,-999.0,-999.0,255,-99.99,,,0.00,Wunderground v.1.15,2013-03-11 11:30:00,
2013-03-11 07:35:00,-999.9,-99.9,30.25,North,32767,-999.0,-999.0,255,-99.99,,,0.00,Wunderground v.1.15,2013-03-11 11:35:00,
2013-03-11 07:40:00,-999.9,-99.9,30.25,North,32767,-999.0,-999.0,255,-99.99,,,0.00,Wunderground v.1.15,2013-03-11 11:40:00,
2013-03-11 07:45:00,-999.9,-99.9,30.25,North,32767,-999.0,-999.0,255,-99.99,,,0.00,Wunderground v.1.15,2013-03-11 11:45:00,
2013-03-11 07:50:00,-999.9,-99.9,30.25,North,32767,-999.0,-999.0,255,-99.99,,,0.00,Wunderground v.1.15,2013-03-11 11:50:00,
2013-03-11 07:55:00,34.6,32.0,30.24,WSW,250,18.0,20.0,90,0.00,,,0.00,Wunderground v.1.15,2013-03-11 11:55:00,
2013-03-11 08:00:00,34.8,32.4,30.25,SW,236,18.0,18.0,91,0.00,,,0.00,Wunderground v.1.15,2013-03-11 12:00:00,
2013-03-11 08:05:00,34.9,32.5,30.25,WSW,238,18.0,21.0,91,0.00,,,0.00,Wunderground v.1.15,2013-03-11 12:05:00,
2013-03-11 08:10:00,34.8,32.2,30.25,WSW,255,18.0,18.0,90,0.00,,,0.00,Wunderground v.1.15,2013-03-11 12:10:00,
2013-03-11 08:15:00,35.0,32.6,30.25,WSW,256,15.0,19.0,91,0.00,,,0.00,Wunderground v.1.15,2013-03-11 12:15:00,
2013-03-11 08:20:00,35.0,32.4,30.25,WSW,255,17.0,17.0,90,0.00,,,0.00,Wunderground v.1.15,2013-03-11 12:20:00,
2013-03-11 08:25:00,35.1,32.7,30.25,WSW,250,19.0,19.0,91,0.00,,,0.00,Wunderground v.1.15,2013-03-11 12:25:00,
2013-03-11 08:30:00,35.1,32.7,30.25,West,263,16.0,19.0,91,0.00,,,0.00,Wunderground v.1.15,2013-03-11 12:30:00,
2013-03-11 08:35:00,35.1,32.5,30.25,WSW,250,13.0,19.0,90,0.00,,,0.00,Wunderground v.1.15,2013-03-11 12:35:00,
2013-03-11 08:40:00,35.1,32.5,30.26,WSW,243,15.0,16.0,90,0.00,,,0.00,Wunderground v.1.15,2013-03-11 12:40:00,
2013-03-11 08:45:00,35.2,32.6,30.26,WSW,249,17.0,18.0,90,0.00,,,0.00,Wunderground v.1.15,2013-03-11 12:45:00,
2013-03-11 08:50:00,35.2,32.6,30.25,WSW,243,15.0,16.0,90,0.00,,,0.00,Wunderground v.1.15,2013-03-11 12:50:00,
2013-03-11 08:55:00,35.3,32.9,30.25,WSW,249,15.0,16.0,91,0.00,,,0.00,Wunderground v.1.15,2013-03-11 12:55:00,
2013-03-11 09:00:00,35.2,32.6,30.25,WSW,256,15.0,16.0,90,0.00,,,0.00,Wunderground v.1.15,2013-03-11 13:00:00,
2013-03-11 09:05:00,35.2,32.6,30.25,WSW,249,14.0,16.0,90,0.00,,,0.00,Wunderground v.1.15,2013-03-11 13:05:00,
2013-03-11 09:10:00,35.3,32.7,30.25,WSW,248,13.0,15.0,90,0.00,,,0.00,Wunderground v.1.15,2013-03-11 13:10:00,
2013-03-11 09:16:00,35.4,32.8,30.25,WSW,243,15.0,16.0,90,0.00,,,0.00,Wunderground v.1.15,2013-03-11 13:16:00,
2013-03-11 09:21:00,35.4,32.8,30.25,WSW,239,14.0,14.0,90,0.00,,,0.00,Wunderground v.1.15,2013-03-11 13:21:00,
2013-03-11 09:26:00,35.5,32.9,30.24,WSW,250,13.0,15.0,90,0.00,,,0.00,Wunderground v.1.15,2013-03-11 13:26:00,
2013-03-11 09:31:00,35.8,33.2,30.24,WSW,239,15.0,15.0,90,0.00,,,0.00,Wunderground v.1.15,2013-03-11 13:31:00,
2013-03-11 09:36:00,35.7,32.8,30.23,WSW,249,14.0,16.0,89,0.00,,,0.00,Wunderground v.1.15,2013-03-11 13:36:00,
2013-03-11 09:42:00,35.7,32.8,30.23,WSW,247,15.0,15.0,89,0.00,,,0.00,Wunderground v.1.15,2013-03-11 13:42:00,
2013-03-11 09:47:00,35.9,33.3,30.24,SW,235,13.0,16.0,90,0.00,,,0.00,Wunderground v.1.15,2013-03-11 13:47:00,
2013-03-11 09:52:00,35.9,33.3,30.24,WSW,246,11.0,15.0,90,0.00,,,0.00,Wunderground v.1.15,2013-03-11 13:52:00,
2013-03-11 09:57:00,35.9,33.0,30.24,WSW,249,14.0,15.0,89,0.00,,,0.00,Wunderground v.1.15,2013-03-11 13:57:00,
2013-03-11 10:02:00,36.1,33.5,30.24,WSW,243,13.0,15.0,90,0.00,,,0.00,Wunderground v.1.15,2013-03-11 14:02:00,
2013-03-11 10:07:00,36.3,33.4,30.24,WSW,252,12.0,15.0,89,0.00,,,0.00,Wunderground v.1.15,2013-03-11 14:07:00,
2013-03-11 10:12:00,36.2,33.3,30.23,WSW,248,13.0,15.0,89,0.00,,,0.00,Wunderground v.1.15,2013-03-11 14:12:00,
2013-03-11 10:17:00,36.2,33.3,30.23,WSW,245,15.0,16.0,89,0.00,,,0.00,Wunderground v.1.15,2013-03-11 14:17:00,
2013-03-11 10:22:00,36.2,33.3,30.23,WSW,242,16.0,16.0,89,0.00,,,0.00,Wunderground v.1.15,2013-03-11 14:22:00,
2013-03-11 10:27:00,36.4,33.5,30.24,WSW,248,12.0,16.0,89,0.00,,,0.00,Wunderground v.1.15,2013-03-11 14:27:00,
2013-03-11 10:32:00,36.5,33.6,30.24,SW,236,13.0,14.0,89,0.00,,,0.00,Wunderground v.1.15,2013-03-11 14:32:00,
2013-03-11 10:38:00,36.6,33.7,30.24,West,267,11.0,14.0,89,0.00,,,0.00,Wunderground v.1.15,2013-03-11 14:38:00,
2013-03-11 10:43:00,36.6,33.7,30.24,WSW,243,12.0,13.0,89,0.00,,,0.00,Wunderground v.1.15,2013-03-11 14:43:00,
2013-03-11 10:48:00,36.7,33.8,30.24,WSW,246,12.0,13.0,89,0.00,,,0.00,Wunderground v.1.15,2013-03-11 14:48:00,
2013-03-11 10:53:00,36.7,33.5,30.24,WSW,244,12.0,14.0,88,0.00,,,0.00,Wunderground v.1.15,2013-03-11 14:53:00,
2013-03-11 10:58:00,36.8,33.9,30.24,WSW,243,13.0,14.0,89,0.00,,,0.00,Wunderground v.1.15,2013-03-11 14:58:00,
2013-03-11 11:03:00,37.1,33.9,30.24,WSW,246,10.0,13.0,88,0.00,,,0.00,Wunderground v.1.15,2013-03-11 15:03:00,
2013-03-11 11:08:00,37.3,34.1,30.24,SW,232,11.0,13.0,88,0.00,,,0.00,Wunderground v.1.15,2013-03-11 15:08:00,
2013-03-11 11:13:00,37.5,34.0,30.24,SW,231,10.0,11.0,87,0.00,,,0.00,Wunderground v.1.15,2013-03-11 15:13:00,
2013-03-11 11:18:00,37.3,33.8,30.24,SW,226,11.0,12.0,87,0.00,,,0.00,Wunderground v.1.15,2013-03-11 15:18:00,
2013-03-11 11:23:00,37.3,34.1,30.24,SW,221,11.0,11.0,88,0.00,,,0.00,Wunderground v.1.15,2013-03-11 15:23:00,
2013-03-11 11:28:00,37.4,34.2,30.24,SW,221,11.0,12.0,88,0.00,,,0.00,Wunderground v.1.15,2013-03-11 15:28:00,
2013-03-11 11:33:00,37.6,34.4,30.24,SW,221,12.0,12.0,88,0.00,,,0.00,Wunderground v.1.15,2013-03-11 15:33:00,
2013-03-11 11:38:00,37.6,34.4,30.24,SW,225,10.0,12.0,88,0.00,,,0.00,Wunderground v.1.15,2013-03-11 15:38:00,
2013-03-11 11:43:00,37.9,34.4,30.24,SSW,213,10.0,12.0,87,0.00,,,0.00,Wunderground v.1.15,2013-03-11 15:43:00,
2013-03-11 11:48:00,37.9,34.4,30.24,SSW,208,7.0,12.0,87,0.00,,,0.00,Wunderground v.1.15,2013-03-11 15:48:00,
2013-03-11 11:53:00,38.0,34.5,30.23,SSW,208,9.0,11.0,87,0.00,,,0.00,Wunderground v.1.15,2013-03-11 15:53:00,
2013-03-11 11:58:00,38.5,35.3,30.23,SSW,195,7.0,12.0,88,0.00,,,0.00,Wunderground v.1.15,2013-03-11 15:58:00,
2013-03-11 12:03:00,39.2,35.7,30.23,SW,218,12.0,13.0,87,0.00,,,0.00,Wunderground v.1.15,2013-03-11 16:03:00,
2013-03-11 12:08:00,39.4,35.6,30.23,SSW,195,8.0,14.0,86,0.00,,,0.00,Wunderground v.1.15,2013-03-11 16:08:00,
2013-03-11 12:13:00,39.5,35.4,30.23,SSW,198,11.0,13.0,85,0.00,,,0.00,Wunderground v.1.15,2013-03-11 16:13:00,
2013-03-11 12:18:00,39.3,35.2,30.23,SSW,208,10.0,13.0,85,0.00,,,0.00,Wunderground v.1.15,2013-03-11 16:18:00,
2013-03-11 12:23:00,39.2,35.4,30.23,SSW,197,10.0,12.0,86,0.00,,,0.00,Wunderground v.1.15,2013-03-11 16:23:00,
2013-03-11 12:28:00,39.1,35.6,30.22,SSW,212,10.0,13.0,87,0.00,,,0.00,Wunderground v.1.15,2013-03-11 16:28:00,
2013-03-11 12:33:00,39.1,35.6,30.22,SSW,197,10.0,13.0,87,0.00,,,0.00,Wunderground v.1.15,2013-03-11 16:33:00,
2013-03-11 12:38:00,39.1,35.6,30.22,SSW,204,11.0,14.0,87,0.00,,,0.00,Wunderground v.1.15,2013-03-11 16:38:00,
2013-03-11 12:43:00,39.3,35.8,30.22,SSW,201,12.0,14.0,87,0.00,,,0.00,Wunderground v.1.15,2013-03-11 16:43:00,
2013-03-11 12:48:00,39.4,35.9,30.22,SSW,205,12.0,15.0,87,0.00,,,0.00,Wunderground v.1.15,2013-03-11 16:48:00,
2013-03-11 12:53:00,39.6,36.0,30.22,SW,215,14.0,16.0,87,0.00,,,0.00,Wunderground v.1.15,2013-03-11 16:53:00,
2013-03-11 12:58:00,40.0,36.2,30.22,SSW,193,11.0,16.0,86,0.00,,,0.00,Wunderground v.1.15,2013-03-11 16:58:00,
2013-03-11 13:03:00,40.0,36.2,30.22,South,186,9.0,14.0,86,0.00,,,0.00,Wunderground v.1.15,2013-03-11 17:03:00,
2013-03-11 13:08:00,40.0,36.4,30.21,SW,217,14.0,14.0,87,0.00,,,0.00,Wunderground v.1.15,2013-03-11 17:08:00,
2013-03-11 13:13:00,40.1,36.2,30.21,SSW,200,10.0,14.0,86,0.00,,,0.00,Wunderground v.1.15,2013-03-11 17:13:00,
2013-03-11 13:18:00,40.3,36.7,30.21,SSW,203,7.0,14.0,87,0.00,,,0.00,Wunderground v.1.15,2013-03-11 17:18:00,
2013-03-11 13:23:00,40.5,36.9,30.21,SSW,197,11.0,13.0,87,0.00,,,0.00,Wunderground v.1.15,2013-03-11 17:23:00,
2013-03-11 13:28:00,40.5,36.9,30.21,South,184,12.0,14.0,87,0.00,,,0.00,Wunderground v.1.15,2013-03-11 17:28:00,
2013-03-11 13:33:00,40.5,36.9,30.21,SSW,205,12.0,14.0,87,0.00,,,0.00,Wunderground v.1.15,2013-03-11 17:33:00,
2013-03-11 13:38:00,40.7,37.1,30.21,SSW,212,13.0,16.0,87,0.00,,,0.00,Wunderground v.1.15,2013-03-11 17:38:00,
2013-03-11 13:43:00,40.9,37.6,30.20,SW,224,14.0,16.0,88,0.00,,,0.00,Wunderground v.1.15,2013-03-11 17:43:00,
2013-03-11 13:48:00,41.1,37.5,30.20,SW,220,17.0,18.0,87,0.00,,,0.00,Wunderground v.1.15,2013-03-11 17:48:00,
2013-03-11 13:53:00,41.3,37.4,30.20,SW,216,17.0,18.0,86,0.00,,,0.00,Wunderground v.1.15,2013-03-11 17:53:00,
2013-03-11 13:58:00,41.3,37.7,30.20,SSW,211,13.0,18.0,87,0.00,,,0.00,Wunderground v.1.15,2013-03-11 17:58:00,
2013-03-11 14:03:00,41.5,37.9,30.20,SW,231,17.0,17.0,87,0.00,,,0.00,Wunderground v.1.15,2013-03-11 18:03:00,
2013-03-11 14:08:00,41.5,37.6,30.19,SW,214,12.0,17.0,86,0.00,,,0.00,Wunderground v.1.15,2013-03-11 18:08:00,
2013-03-11 14:13:00,41.1,37.5,30.19,SSW,203,20.0,21.0,87,0.00,,,0.00,Wunderground v.1.15,2013-03-11 18:13:00,
2013-03-11 14:18:00,40.6,37.6,30.19,SSW,200,17.0,21.0,89,0.00,,,0.00,Wunderground v.1.15,2013-03-11 18:18:00,
2013-03-11 14:23:00,40.4,37.4,30.19,SSW,212,18.0,20.0,89,0.00,,,0.00,Wunderground v.1.15,2013-03-11 18:23:00,
2013-03-11 14:28:00,40.4,37.4,30.18,SSW,195,15.0,21.0,89,0.00,,,0.00,Wunderground v.1.15,2013-03-11 18:28:00,
2013-03-11 14:33:00,40.3,37.3,30.18,SSW,204,17.0,21.0,89,0.00,,,0.00,Wunderground v.1.15,2013-03-11 18:33:00,
2013-03-11 14:39:00,40.4,37.4,30.18,South,191,16.0,21.0,89,0.00,,,0.00,Wunderground v.1.15,2013-03-11 18:39:00,
2013-03-11 14:44:00,40.5,37.5,30.17,SSW,194,18.0,21.0,89,0.00,,,0.00,Wunderground v.1.15,2013-03-11 18:44:00,
2013-03-11 14:49:00,40.6,37.6,30.18,SSW,201,16.0,21.0,89,0.00,,,0.00,Wunderground v.1.15,2013-03-11 18:49:00,
2013-03-11 14:54:00,40.7,38.0,30.17,SSW,203,14.0,20.0,90,0.00,,,0.00,Wunderground v.1.15,2013-03-11 18:54:00,
2013-03-11 14:59:00,40.6,37.9,30.17,SSW,204,16.0,20.0,90,0.00,,,0.00,Wunderground v.1.15,2013-03-11 18:59:00,
2013-03-11 15:04:00,40.6,37.9,30.17,SSW,204,16.0,19.0,90,0.00,,,0.00,Wunderground v.1.15,2013-03-11 19:04:00,
2013-03-11 15:09:00,40.5,37.8,30.17,SSW,211,20.0,21.0,90,0.00,,,0.00,Wunderground v.1.15,2013-03-11 19:09:00,
2013-03-11 15:14:00,40.6,37.9,30.17,SSW,207,17.0,21.0,90,0.00,,,0.00,Wunderground v.1.15,2013-03-11 19:14:00,
2013-03-11 15:19:00,40.6,37.9,30.17,SSW,211,20.0,21.0,90,0.00,,,0.00,Wunderground v.1.15,2013-03-11 19:19:00,
2013-03-11 15:24:00,40.6,37.9,30.17,SSW,197,17.0,20.0,90,0.00,,,0.00,Wunderground v.1.15,2013-03-11 19:24:00,
2013-03-11 15:29:00,40.6,37.9,30.17,SSW,205,18.0,20.0,90,0.00,,,0.00,Wunderground v.1.15,2013-03-11 19:29:00,
2013-03-11 15:34:00,40.6,37.9,30.17,SSW,201,19.0,22.0,90,0.00,,,0.00,Wunderground v.1.15,2013-03-11 19:34:00,
2013-03-11 15:39:00,40.6,37.9,30.16,SSW,205,21.0,22.0,90,0.00,,,0.00,Wunderground v.1.15,2013-03-11 19:39:00,
2013-03-11 15:44:00,40.6,37.9,30.16,SSW,203,21.0,24.0,90,0.00,,,0.00,Wunderground v.1.15,2013-03-11 19:44:00,
2013-03-11 15:49:00,40.6,37.9,30.16,SSW,203,20.0,24.0,90,0.00,,,0.00,Wunderground v.1.15,2013-03-11 19:49:00,
2013-03-11 15:54:00,40.6,37.9,30.16,SSW,212,20.0,23.0,90,0.00,,,0.00,Wunderground v.1.15,2013-03-11 19:54:00,
2013-03-11 15:59:00,40.6,37.9,30.16,SSW,212,15.0,23.0,90,0.00,,,0.00,Wunderground v.1.15,2013-03-11 19:59:00,
2013-03-11 16:04:00,40.7,38.0,30.16,SSW,210,19.0,24.0,90,0.00,,,0.00,Wunderground v.1.15,2013-03-11 20:04:00,
2013-03-11 16:09:00,40.7,38.0,30.16,SSW,213,21.0,24.0,90,0.00,,,0.00,Wunderground v.1.15,2013-03-11 20:09:00,
2013-03-11 16:14:00,40.6,37.9,30.16,SSW,208,17.0,22.0,90,0.00,,,0.00,Wunderground v.1.15,2013-03-11 20:14:00,
2013-03-11 16:19:00,40.6,37.9,30.16,SSW,211,16.0,22.0,90,0.00,,,0.00,Wunderground v.1.15,2013-03-11 20:19:00,
2013-03-11 16:24:00,40.6,37.9,30.16,SSW,201,14.0,23.0,90,0.00,,,0.00,Wunderground v.1.15,2013-03-11 20:24:00,
2013-03-11 16:29:00,40.6,37.9,30.16,SSW,213,19.0,23.0,90,0.00,,,0.00,Wunderground v.1.15,2013-03-11 20:29:00,
2013-03-11 16:34:00,40.8,38.1,30.16,SW,215,21.0,24.0,90,0.00,,,0.00,Wunderground v.1.15,2013-03-11 20:34:00,
2013-03-11 16:39:00,40.9,37.9,30.15,SSW,212,18.0,24.0,89,0.00,,,0.00,Wunderground v.1.15,2013-03-11 20:39:00,
2013-03-11 16:44:00,40.9,38.2,30.15,SSW,203,22.0,23.0,90,0.00,,,0.00,Wunderground v.1.15,2013-03-11 20:44:00,
2013-03-11 16:50:00,40.8,38.1,30.15,SSW,203,17.0,23.0,90,0.00,,,0.00,Wunderground v.1.15,2013-03-11 20:50:00,
2013-03-11 16:55:00,40.9,38.2,30.15,SW,223,20.0,24.0,90,0.00,,,0.00,Wunderground v.1.15,2013-03-11 20:55:00,
2013-03-11 17:00:00,41.1,38.1,30.15,SW,217,21.0,24.0,89,0.00,,,0.00,Wunderground v.1.15,2013-03-11 21:00:00,
2013-03-11 17:05:00,41.1,38.4,30.15,SSW,211,22.0,23.0,90,0.00,,,0.00,Wunderground v.1.15,2013-03-11 21:05:00,
2013-03-11 17:10:00,41.3,38.3,30.15,SSW,213,21.0,21.0,89,0.00,,,0.00,Wunderground v.1.15,2013-03-11 21:10:00,
2013-03-11 17:15:00,41.8,38.5,30.14,SW,217,21.0,23.0,88,0.00,,,0.00,Wunderground v.1.15,2013-03-11 21:15:00,
2013-03-11 17:20:00,41.8,38.5,30.15,SSW,205,18.0,21.0,88,0.00,,,0.00,Wunderground v.1.15,2013-03-11 21:20:00,
2013-03-11 17:25:00,41.8,38.5,30.15,SSW,212,19.0,23.0,88,0.00,,,0.00,Wunderground v.1.15,2013-03-11 21:25:00,
2013-03-11 17:30:00,41.8,38.5,30.15,SSW,207,17.0,20.0,88,0.00,,,0.00,Wunderground v.1.15,2013-03-11 21:30:00,
2013-03-11 17:35:00,41.6,38.6,30.15,SSW,210,16.0,21.0,89,0.00,,,0.00,Wunderground v.1.15,2013-03-11 21:35:00,
2013-03-11 17:40:00,41.6,38.6,30.16,SSW,211,19.0,19.0,89,0.00,,,0.00,Wunderground v.1.15,2013-03-11 21:40:00,
2013-03-11 17:45:00,41.9,38.9,30.15,SSW,212,19.0,24.0,89,0.00,,,0.00,Wunderground v.1.15,2013-03-11 21:45:00,
2013-03-11 17:50:00,41.9,38.9,30.15,SW,218,23.0,23.0,89,0.00,,,0.00,Wunderground v.1.15,2013-03-11 21:50:00,
2013-03-11 17:55:00,41.9,38.9,30.15,SSW,211,21.0,24.0,89,0.00,,,0.00,Wunderground v.1.15,2013-03-11 21:55:00,
2013-03-11 18:00:00,41.7,38.7,30.15,SSW,213,19.0,23.0,89,0.00,,,0.00,Wunderground v.1.15,2013-03-11 22:00:00,
2013-03-11 18:05:00,41.7,38.7,30.15,SSW,200,21.0,24.0,89,0.00,,,0.00,Wunderground v.1.15,2013-03-11 22:05:00,
2013-03-11 18:10:00,41.4,38.7,30.15,SW,225,18.0,19.0,90,0.00,,,0.00,Wunderground v.1.15,2013-03-11 22:10:00,
2013-03-11 18:15:00,41.3,38.9,30.15,SSW,207,18.0,22.0,91,0.00,,,0.00,Wunderground v.1.15,2013-03-11 22:15:00,
2013-03-11 18:20:00,41.3,38.9,30.15,SSW,211,16.0,22.0,91,0.00,,,0.00,Wunderground v.1.15,2013-03-11 22:20:00,
2013-03-11 18:25:00,41.2,38.8,30.15,SSW,203,19.0,23.0,91,0.00,,,0.00,Wunderground v.1.15,2013-03-11 22:25:00,
2013-03-11 18:30:00,41.2,38.8,30.15,SSW,200,19.0,23.0,91,0.00,,,0.00,Wunderground v.1.15,2013-03-11 22:30:00,
2013-03-11 18:35:00,41.1,38.7,30.15,SSW,204,19.0,24.0,91,0.00,,,0.00,Wunderground v.1.15,2013-03-11 22:35:00,
2013-03-11 18:40:00,41.0,38.6,30.15,SSW,207,23.0,23.0,91,0.00,,,0.00,Wunderground v.1.15,2013-03-11 22:40:00,
2013-03-11 18:45:00,40.9,38.8,30.14,SSW,198,20.0,24.0,92,0.00,,,0.00,Wunderground v.1.15,2013-03-11 22:45:00,
2013-03-11 18:50:00,40.8,38.7,30.15,SSW,198,19.0,23.0,92,0.00,,,0.00,Wunderground v.1.15,2013-03-11 22:50:00,
2013-03-11 18:55:00,40.8,38.7,30.15,SSW,210,20.0,25.0,92,0.00,,,0.00,Wunderground v.1.15,2013-03-11 22:55:00,
2013-03-11 19:00:00,40.8,38.7,30.15,SSW,207,23.0,23.0,92,0.00,,,0.00,Wunderground v.1.15,2013-03-11 23:00:00,
2013-03-11 19:05:00,40.8,38.7,30.14,SSW,211,18.0,26.0,92,0.00,,,0.00,Wunderground v.1.15,2013-03-11 23:05:00,
2013-03-11 19:10:00,40.8,38.7,30.14,SSW,193,22.0,23.0,92,0.00,,,0.00,Wunderground v.1.15,2013-03-11 23:10:00,
2013-03-11 19:15:00,40.7,38.6,30.14,SW,226,25.0,26.0,92,0.00,,,0.00,Wunderground v.1.15,2013-03-11 23:15:00,
2013-03-11 19:20:00,40.7,38.6,30.15,SSW,210,21.0,24.0,92,0.00,,,0.00,Wunderground v.1.15,2013-03-11 23:20:00,
2013-03-11 19:25:00,40.8,38.7,30.15,SSW,212,20.0,24.0,92,0.00,,,0.00,Wunderground v.1.15,2013-03-11 23:25:00,
2013-03-11 19:30:00,40.9,38.8,30.15,SSW,203,20.0,22.0,92,0.00,,,0.00,Wunderground v.1.15,2013-03-11 23:30:00,
2013-03-11 19:36:00,40.9,38.8,30.15,SSW,210,16.0,22.0,92,0.00,,,0.00,Wunderground v.1.15,2013-03-11 23:36:00,
2013-03-11 19:41:00,41.0,38.9,30.15,SW,214,21.0,22.0,92,0.00,,,0.00,Wunderground v.1.15,2013-03-11 23:41:00,
2013-03-11 19:46:00,41.1,39.0,30.15,SSW,204,16.0,22.0,92,0.00,,,0.00,Wunderground v.1.15,2013-03-11 23:46:00,
2013-03-11 19:51:00,41.1,39.0,30.15,SSW,195,19.0,22.0,92,0.00,,,0.00,Wunderground v.1.15,2013-03-11 23:51:00,
2013-03-11 19:56:00,41.1,39.0,30.15,SSW,213,17.0,22.0,92,0.00,,,0.00,Wunderground v.1.15,2013-03-11 23:56:00,
2013-03-11 20:01:00,41.1,39.0,30.15,SW,223,18.0,22.0,92,0.00,,,0.00,Wunderground v.1.15,2013-03-12 00:01:00,
2013-03-11 20:06:00,41.5,39.3,30.15,SSW,199,19.0,25.0,92,0.00,,,0.00,Wunderground v.1.15,2013-03-12 00:06:00,
2013-03-11 20:11:00,41.8,39.4,30.15,SW,223,17.0,23.0,91,0.00,,,0.00,Wunderground v.1.15,2013-03-12 00:11:00,
2013-03-11 20:16:00,42.1,39.4,30.15,SSW,213,19.0,24.0,90,0.00,,,0.00,Wunderground v.1.15,2013-03-12 00:16:00,
2013-03-11 20:21:00,42.3,39.6,30.15,SW,222,20.0,23.0,90,0.00,,,0.00,Wunderground v.1.15,2013-03-12 00:21:00,
2013-03-11 20:27:00,42.4,39.7,30.15,SW,214,17.0,23.0,90,0.00,,,0.00,Wunderground v.1.15,2013-03-12 00:27:00,
2013-03-11 20:32:00,42.4,39.7,30.15,SW,228,21.0,24.0,90,0.00,,,0.00,Wunderground v.1.15,2013-03-12 00:32:00,
2013-03-11 20:37:00,42.4,39.7,30.15,SW,221,21.0,24.0,90,0.00,,,0.00,Wunderground v.1.15,2013-03-12 00:37:00,
2013-03-11 20:42:00,42.1,39.4,30.16,SW,226,21.0,22.0,90,0.00,,,0.00,Wunderground v.1.15,2013-03-12 00:42:00,
2013-03-11 20:47:00,42.1,39.4,30.16,SW,223,20.0,22.0,90,0.00,,,0.00,Wunderground v.1.15,2013-03-12 00:47:00,
2013-03-11 20:52:00,42.2,39.8,30.16,SW,225,22.0,23.0,91,0.00,,,0.00,Wunderground v.1.15,2013-03-12 00:52:00,
2013-03-11 20:57:00,42.4,39.7,30.15,SW,226,21.0,23.0,90,0.00,,,0.00,Wunderground v.1.15,2013-03-12 00:57:00,
2013-03-11 21:02:00,42.3,39.6,30.15,SW,231,14.0,21.0,90,0.00,,,0.00,Wunderground v.1.15,2013-03-12 01:02:00,
2013-03-11 21:07:00,42.1,39.7,30.14,SSW,213,18.0,22.0,91,0.00,,,0.00,Wunderground v.1.15,2013-03-12 01:07:00,
2013-03-11 21:12:00,42.2,39.8,30.14,SW,218,20.0,23.0,91,0.00,,,0.00,Wunderground v.1.15,2013-03-12 01:12:00,
2013-03-11 21:17:00,42.1,39.7,30.14,SSW,201,19.0,24.0,91,0.00,,,0.00,Wunderground v.1.15,2013-03-12 01:17:00,
2013-03-11 21:22:00,41.8,39.4,30.14,SW,224,19.0,22.0,91,0.00,,,0.00,Wunderground v.1.15,2013-03-12 01:22:00,
2013-03-11 21:27:00,41.3,38.9,30.14,SSW,208,16.0,22.0,91,0.00,,,0.00,Wunderground v.1.15,2013-03-12 01:27:00,
2013-03-11 21:32:00,41.0,39.1,30.14,SW,215,18.0,22.0,93,0.00,,,0.00,Wunderground v.1.15,2013-03-12 01:32:00,
2013-03-11 21:37:00,40.9,39.0,30.15,SSW,212,21.0,23.0,93,0.00,,,0.00,Wunderground v.1.15,2013-03-12 01:37:00,
2013-03-11 21:42:00,40.7,38.8,30.15,SSW,212,20.0,22.0,93,0.00,,,0.00,Wunderground v.1.15,2013-03-12 01:42:00,
2013-03-11 21:47:00,40.6,39.0,30.15,SSW,211,19.0,22.0,94,0.00,,,0.00,Wunderground v.1.15,2013-03-12 01:47:00,
2013-03-11 21:52:00,40.3,38.7,30.14,SSW,205,18.0,21.0,94,0.00,,,0.00,Wunderground v.1.15,2013-03-12 01:52:00,
2013-03-11 21:57:00,40.2,38.6,30.14,SSW,208,17.0,22.0,94,0.00,,,0.00,Wunderground v.1.15,2013-03-12 01:57:00,
2013-03-11 22:02:00,40.1,38.8,30.14,SSW,208,19.0,20.0,95,0.00,,,0.00,Wunderground v.1.15,2013-03-12 02:02:00,
2013-03-11 22:07:00,40.0,38.7,30.14,SSW,205,16.0,20.0,95,0.00,,,0.00,Wunderground v.1.15,2013-03-12 02:07:00,
2013-03-11 22:12:00,40.0,38.7,30.14,SW,227,18.0,20.0,95,0.00,,,0.00,Wunderground v.1.15,2013-03-12 02:12:00,
2013-03-11 22:17:00,39.9,38.6,30.14,SSW,213,18.0,21.0,95,0.00,,,0.00,Wunderground v.1.15,2013-03-12 02:17:00,
2013-03-11 22:22:00,39.9,38.6,30.14,SW,217,19.0,20.0,95,0.00,,,0.00,Wunderground v.1.15,2013-03-12 02:22:00,
2013-03-11 22:27:00,39.9,38.6,30.14,SSW,212,18.0,22.0,95,0.00,,,0.00,Wunderground v.1.15,2013-03-12 02:27:00,
2013-03-11 22:32:00,39.9,38.6,30.14,SSW,211,16.0,20.0,95,0.00,,,0.00,Wunderground v.1.15,2013-03-12 02:32:00,
2013-03-11 22:37:00,40.0,38.7,30.14,SW,219,18.0,22.0,95,0.00,,,0.00,Wunderground v.1.15,2013-03-12 02:37:00,
2013-03-11 22:42:00,40.0,38.7,30.14,SSW,208,16.0,18.0,95,0.00,,,0.00,Wunderground v.1.15,2013-03-12 02:42:00,
2013-03-11 22:47:00,40.0,38.7,30.15,SSW,210,15.0,19.0,95,0.00,,,0.00,Wunderground v.1.15,2013-03-12 02:47:00,
2013-03-11 22:52:00,40.0,38.7,30.15,SSW,211,17.0,19.0,95,0.00,,,0.00,Wunderground v.1.15,2013-03-12 02:52:00,
2013-03-11 22:57:00,40.0,38.7,30.15,SW,221,13.0,19.0,95,0.00,,,0.00,Wunderground v.1.15,2013-03-12 02:57:00,
2013-03-11 23:02:00,40.2,39.2,30.14,SW,223,15.0,17.0,96,0.00,,,0.00,Wunderground v.1.15,2013-03-12 03:02:00,
2013-03-11 23:07:00,40.3,39.0,30.14,SW,215,13.0,19.0,95,0.00,,,0.00,Wunderground v.1.15,2013-03-12 03:07:00,
2013-03-11 23:12:00,40.4,39.1,30.14,SSW,213,17.0,19.0,95,0.00,,,0.00,Wunderground v.1.15,2013-03-12 03:12:00,
2013-03-11 23:17:00,40.3,39.0,30.14,SSW,210,13.0,19.0,95,0.00,,,0.00,Wunderground v.1.15,2013-03-12 03:17:00,
2013-03-11 23:22:00,40.1,38.8,30.14,SW,217,15.0,17.0,95,0.00,,,0.00,Wunderground v.1.15,2013-03-12 03:22:00,
2013-03-11 23:27:00,40.1,38.8,30.14,South,191,16.0,17.0,95,0.00,,,0.00,Wunderground v.1.15,2013-03-12 03:27:00,
2013-03-11 23:32:00,40.1,38.8,30.14,SW,216,15.0,18.0,95,0.00,,,0.00,Wunderground v.1.15,2013-03-12 03:32:00,
2013-03-11 23:37:00,40.2,38.9,30.13,SSW,213,17.0,18.0,95,0.00,,,0.00,Wunderground v.1.15,2013-03-12 03:37:00,
2013-03-11 23:42:00,40.3,39.0,30.13,SSW,211,17.0,21.0,95,0.00,,,0.00,Wunderground v.1.15,2013-03-12 03:42:00,
2013-03-11 23:47:00,40.3,39.0,30.14,SSW,211,16.0,21.0,95,0.00,,,0.00,Wunderground v.1.15,2013-03-12 03:47:00,
2013-03-11 23:52:00,40.4,39.1,30.14,SW,223,18.0,19.0,95,0.00,,,0.00,Wunderground v.1.15,2013-03-12 03:52:00,
2013-03-11 23:57:00,40.5,39.2,30.15,SW,229,17.0,19.0,95,0.00,,,0.00,Wunderground v.1.15,2013-03-12 03:57:00,